Location: Carthage
(33.8834°N, 106.6595°W)
Time: 10:45:02
(UTC+00:00)

OAO 3 Rocket - Pass Details

Date: 13 February 2026
Orbit: 613 x 660 km, 35.0° (Epoch: 11 March)

Event Time Altitude Azimuth Distance (km) Brightness Sun altitude
Exits shadow 12:39:24 22° 242° (WSW) 1,337 4.3 -15.8°
Maximum altitude 12:41:00 28° 208° (SSW) 1,162 4.2 -15.5°
Drops below altitude 10° 12:44:52 10° 149° (SSE) 1,957 6.1 -14.7°
Sets 12:47:26 0° 138° (SE) 2,857 7.3 -14.2°
